When you browse on this site, cookies collect data to enhance your experience and personalize the content and advertising you see.
Visit our Privacy Policy to learn more. By continuing to use the site, you agree to this use of cookies and data.
  • Em Portugal
  • Lista de países
  • Para 7 dias
  • Temperatura da água
  • Mapa do tempo
  • Widgets de tempo
  • user-avatar
    Iniciar Sessão

    Previsão horária em Sunny Beach

    Hoje, 18 Fevereiro, Terça-feira

    Tempo Temperatura Precipitação Vento Pressão Humidade
    00:00 +4°C° 0 mm 1 m/s 741 mmHg 79%
    01:00 +4°C° 0 mm 1 m/s 740 mmHg 78%
    02:00 +4°C° 0 mm 1 m/s 740 mmHg 76%
    03:00 +4°C° 0 mm 1 m/s 740 mmHg 76%
    04:00 +3°C° 0 mm 0 m/s 739 mmHg 75%
    05:00 +2°C° 0 mm 0 m/s 739 mmHg 74%
    06:00 +3°C° 0 mm 0 m/s 739 mmHg 71%
    07:00 +3°C° 0 mm 0 m/s 739 mmHg 69%
    08:00 +4°C° 0 mm 0 m/s 739 mmHg 67%
    09:00 +7°C° 0 mm 1 m/s 739 mmHg 60%
    10:00 +9°C° 0 mm 1 m/s 739 mmHg 52%
    11:00 +11°C° 0 mm 1 m/s 739 mmHg 45%
    12:00 +12°C° 0 mm 1 m/s 739 mmHg 44%
    13:00 +12°C° 0 mm 1 m/s 739 mmHg 43%
    14:00 +13°C° 0 mm 1 m/s 738 mmHg 42%
    15:00 +13°C° 0 mm 1 m/s 738 mmHg 48%
    16:00 +12°C° 0 mm 1 m/s 738 mmHg 53%
    17:00 +11°C° 0 mm 1 m/s 737 mmHg 59%
    18:00 +10°C° 0 mm 1 m/s 738 mmHg 62%
    19:00 +9°C° 0 mm 1 m/s 738 mmHg 64%
    20:00 +7°C° 0 mm 0 m/s 738 mmHg 67%
    21:00 +8°C° 0 mm 1 m/s 738 mmHg 66%
    22:00 +8°C° 0 mm 1 m/s 738 mmHg 65%
    23:00 +8°C° 0 mm 1 m/s 738 mmHg 65%

    Amanhã, 19 Fevereiro, Quarta-feira

    Tempo Temperatura Precipitação Vento Pressão Humidade
    00:00 +8°C° 0 mm 1 m/s 738 mmHg 68%
    01:00 +8°C° 0 mm 1 m/s 738 mmHg 71%
    02:00 +7°C° 0 mm 2 m/s 738 mmHg 74%
    03:00 +7°C° 0 mm 2 m/s 738 mmHg 78%
    04:00 +7°C° 0 mm 2 m/s 738 mmHg 81%
    05:00 +7°C° 0 mm 2 m/s 738 mmHg 84%
    06:00 +7°C° 0 mm 2 m/s 738 mmHg 85%
    07:00 +7°C° 0 mm 2 m/s 738 mmHg 87%
    08:00 +7°C° 0 mm 2 m/s 738 mmHg 89%
    09:00 +7°C° 0 mm 2 m/s 738 mmHg 82%
    10:00 +8°C° 0 mm 2 m/s 738 mmHg 75%
    11:00 +9°C° 0 mm 3 m/s 738 mmHg 69%
    12:00 +9°C° 0 mm 3 m/s 738 mmHg 68%
    13:00 +9°C° 0 mm 2 m/s 738 mmHg 68%
    14:00 +9°C° 0 mm 2 m/s 737 mmHg 67%
    15:00 +9°C° 0 mm 2 m/s 737 mmHg 71%
    16:00 +8°C° 0 mm 2 m/s 737 mmHg 74%
    17:00 +8°C° 0 mm 2 m/s 737 mmHg 78%
    18:00 +7°C° 0 mm 2 m/s 737 mmHg 83%
    19:00 +6°C° 0 mm 2 m/s 736 mmHg 88%
    20:00 +6°C° 0 mm 1 m/s 736 mmHg 92%
    21:00 +6°C° 0 mm 1 m/s 736 mmHg 93%
    22:00 +5°C° 0 mm 1 m/s 736 mmHg 94%
    23:00 +5°C° 0 mm 1 m/s 736 mmHg 94%

    Depois de amanhã, 20 Fevereiro, Quinta-feira

    Tempo Temperatura Precipitação Vento Pressão Humidade
    00:00 +5°C° 0 mm 1 m/s 736 mmHg 94%
    01:00 +4°C° 0 mm 0 m/s 735 mmHg 93%
    02:00 +4°C° 0 mm 0 m/s 735 mmHg 92%
    03:00 +5°C° 0.1 mm 0 m/s 735 mmHg 92%
    04:00 +5°C° 0.1 mm 0 m/s 735 mmHg 92%
    05:00 +5°C° 0.1 mm 0 m/s 734 mmHg 92%
    06:00 +6°C° 0.1 mm 1 m/s 735 mmHg 92%
    07:00 +6°C° 0.1 mm 1 m/s 735 mmHg 93%
    08:00 +6°C° 0.1 mm 1 m/s 735 mmHg 93%
    09:00 +6°C° 0.1 mm 1 m/s 735 mmHg 90%
    10:00 +7°C° 0.1 mm 1 m/s 735 mmHg 86%
    11:00 +6°C° 0.1 mm 2 m/s 735 mmHg 83%
    12:00 +6°C° 0.1 mm 2 m/s 735 mmHg 83%
    13:00 +6°C° 0.1 mm 2 m/s 735 mmHg 82%
    14:00 +6°C° 0.1 mm 2 m/s 735 mmHg 82%
    15:00 +6°C° 0 mm 2 m/s 734 mmHg 82%
    16:00 +6°C° 0 mm 2 m/s 734 mmHg 83%
    17:00 +6°C° 0 mm 2 m/s 734 mmHg 84%
    18:00 +5°C° 0 mm 2 m/s 735 mmHg 86%
    19:00 +5°C° 0 mm 2 m/s 735 mmHg 88%
    20:00 +5°C° 0 mm 2 m/s 735 mmHg 90%
    21:00 +4°C° 0 mm 2 m/s 736 mmHg 92%
    22:00 +4°C° 0 mm 2 m/s 736 mmHg 93%
    23:00 +4°C° 0 mm 2 m/s 736 mmHg 95%

    21 Fevereiro, Sexta-feira

    Tempo Temperatura Precipitação Vento Pressão Humidade
    00:00 +3°C° 0 mm 3 m/s 736 mmHg 94%
    01:00 +3°C° 0 mm 3 m/s 736 mmHg 94%
    02:00 +4°C° 0 mm 3 m/s 736 mmHg 93%
    03:00 +4°C° 0.1 mm 4 m/s 736 mmHg 92%
    04:00 +4°C° 0.1 mm 4 m/s 737 mmHg 91%
    05:00 +2°C° 0.1 mm 5 m/s 737 mmHg 91%
    06:00 +2°C° 0 mm 5 m/s 737 mmHg 89%
    07:00 +2°C° 0 mm 5 m/s 737 mmHg 88%
    08:00 +1°C° 0 mm 5 m/s 738 mmHg 87%
    15:00 +5°C° 0 mm 4 m/s 739 mmHg 70%
    16:00 +5°C° 0 mm 4 m/s 740 mmHg 71%
    17:00 +4°C° 0 mm 3 m/s 740 mmHg 72%
    18:00 +5°C° 0 mm 2 m/s 740 mmHg 77%
    19:00 +4°C° 0 mm 2 m/s 740 mmHg 81%
    20:00 +4°C° 0 mm 1 m/s 741 mmHg 86%
    21:00 +4°C° 0 mm 1 m/s 741 mmHg 86%
    22:00 +3°C° 0 mm 1 m/s 741 mmHg 87%
    23:00 +3°C° 0 mm 1 m/s 741 mmHg 87%

    22 Fevereiro, Sábado

    Tempo Temperatura Precipitação Vento Pressão Humidade
    00:00 +3°C° 0 mm 1 m/s 741 mmHg 87%
    01:00 +3°C° 0 mm 1 m/s 741 mmHg 86%
    02:00 +3°C° 0 mm 1 m/s 741 mmHg 85%
    03:00 +2°C° 0 mm 2 m/s 741 mmHg 84%
    04:00 +2°C° 0 mm 2 m/s 741 mmHg 84%
    05:00 +1°C° 0 mm 3 m/s 740 mmHg 83%
    06:00 +1°C° 0 mm 3 m/s 741 mmHg 79%
    07:00 +1°C° 0 mm 3 m/s 741 mmHg 76%
    08:00 +1°C° 0 mm 4 m/s 741 mmHg 72%
    09:00 +1°C° 0 mm 4 m/s 741 mmHg 70%
    10:00 +3°C° 0 mm 4 m/s 742 mmHg 68%
    11:00 +2°C° 0 mm 5 m/s 742 mmHg 66%
    12:00 +3°C° 0 mm 4 m/s 742 mmHg 72%
    13:00 +3°C° 0 mm 4 m/s 742 mmHg 77%
    14:00 +3°C° 0 mm 4 m/s 742 mmHg 83%
    15:00 +3°C° 0.2 mm 4 m/s 742 mmHg 82%
    16:00 +2°C° 0.2 mm 5 m/s 743 mmHg 81%
    17:00 +3°C° 0.2 mm 5 m/s 743 mmHg 80%
    18:00 +2°C° 0.2 mm 5 m/s 743 mmHg 84%
    19:00 +2°C° 0.2 mm 5 m/s 744 mmHg 88%
    20:00 +1°C° 0.2 mm 5 m/s 744 mmHg 92%
    21:00 +1°C° 0.1 mm 5 m/s 745 mmHg 91%
    22:00 +1°C° 0.1 mm 5 m/s 745 mmHg 89%
    23:00 +1°C° 0.1 mm 5 m/s 745 mmHg 88%

    23 Fevereiro, Domingo

    Tempo Temperatura Precipitação Vento Pressão Humidade
    00:00 +1°C° 0 mm 4 m/s 745 mmHg 88%
    01:00 0°C° 0 mm 4 m/s 745 mmHg 89%
    02:00 0°C° 0 mm 4 m/s 745 mmHg 90%
    03:00 0°C° 0 mm 3 m/s 745 mmHg 90%
    04:00 0°C° 0 mm 3 m/s 745 mmHg 90%
    05:00 -1°C° 0 mm 3 m/s 744 mmHg 89%
    06:00 +1°C° 0 mm 2 m/s 744 mmHg 86%
    07:00 +1°C° 0 mm 2 m/s 744 mmHg 83%
    08:00 +1°C° 0 mm 2 m/s 744 mmHg 80%
    09:00 +3°C° 0 mm 2 m/s 744 mmHg 73%
    10:00 +5°C° 0 mm 2 m/s 744 mmHg 65%
    11:00 +6°C° 0 mm 2 m/s 744 mmHg 58%
    12:00 +7°C° 0 mm 2 m/s 744 mmHg 54%
    13:00 +8°C° 0 mm 2 m/s 743 mmHg 51%
    14:00 +8°C° 0 mm 2 m/s 743 mmHg 48%
    15:00 +8°C° 0 mm 2 m/s 742 mmHg 52%
    16:00 +8°C° 0 mm 2 m/s 742 mmHg 55%
    17:00 +7°C° 0 mm 2 m/s 741 mmHg 58%
    18:00 +6°C° 0 mm 2 m/s 741 mmHg 60%
    19:00 +6°C° 0 mm 2 m/s 741 mmHg 61%
    20:00 +5°C° 0 mm 2 m/s 741 mmHg 62%
    21:00 +5°C° 0 mm 2 m/s 741 mmHg 62%
    22:00 +4°C° 0 mm 2 m/s 741 mmHg 62%
    23:00 +4°C° 0 mm 2 m/s 741 mmHg 62%
    Mostrar mais